[[{"header":{"parameterUnit":"m.s-1","parameterCategory":1,"la1":30.2991,"la2":30.254,"lo1":-89.0895,"lo2":-89.0444,"dy":0.0017,"dx":0.0017,"nx":28,"ny":28,"refTime":"2024-07-06T21:00:00:Z","depth":0,"parameterNumber":2,"parameterNumberName":"U-component_of_WINDS"},"data":[0,0,0,0,0,0,0,0,0,0,0,0,0,0,0,0,0,0,0,0,0,0,0,0,0,0,0,0,0,0,0,0,0,0,0,0,0,0,0,0,0,0,0,0,0,0,0,0,0,0,0,0,0,0,0,0,0,0,-0.2681,-0.2681,0,-0.2613,-0.2613,-0.2612,-0.2584,-0.2584,-0.2584,-0.2585,-0.2515,-0.2513,-0.2511,0,0,0,0,0,0,0,0,0,0,0,0,0,-0.2788,-0.2786,-0.2681,-0.2681,-0.268,-0.2613,-0.2612,-0.2612,-0.2584,-0.2584,-0.2585,-0.2585,-0.2515,-0.2513,-0.2511,0,0,0,0,0,0,0,0,0,0,0,0,0,-0.2733,-0.2785,-0.2682,-0.2658,-0.2655,-0.2614,-0.2612,-0.2611,-0.2584,-0.2584,-0.2585,-0.2585,-0.2516,-0.2513,-0.251,-0.2487,0,0,-0.2501,-0.25,0,0,0,0,0,0,0,0,-0.2736,-0.2729,-0.2662,-0.266,-0.2656,-0.2607,-0.2624,-0.257,-0.2584,-0.2611,-0.2585,-0.2585,-0.2545,-0.254,-0.2527,-0.2484,-0.2481,-0.2501,-0.2499,-0.2498,-0.2497,0,0,0,0,0,0,0,-0.274,-0.2732,-0.2654,-0.2661,-0.2658,-0.2651,-0.2643,-0.2614,-0.2578,-0.2609,-0.2607,-0.2599,-0.2544,-0.253,-0.2525,-0.248,-0.2501,-0.2498,-0.2496,-0.2495,-0.2414,-0.2414,0,0,0,0,0,0,-0.2748,-0.2735,-0.2657,-0.2652,-0.2698,-0.2649,-0.264,-0.2623,-0.2578,-0.2571,-0.2599,-0.2598,-0.2535,-0.2528,-0.2522,-0.2492,-0.2498,-0.2495,-0.2493,-0.2414,-0.2414,-0.2414,0,0,0,0,0,0,-0.275,-0.2741,-0.2659,-0.2693,-0.2682,-0.2647,-0.2627,-0.2621,-0.2607,-0.257,-0.2564,-0.2591,-0.2535,-0.2526,-0.2496,-0.2489,-0.2493,-0.2491,-0.2415,-0.2414,-0.2414,-0.2431,0,0,0,0,0,0,-0.2753,-0.2742,-0.2733,-0.2693,-0.2681,-0.2634,-0.2627,-0.262,-0.2602,-0.26,-0.2561,-0.2555,-0.2534,-0.2501,-0.2493,-0.2485,-0.2488,-0.2415,-0.2415,-0.2414,-0.2431,-0.2432,-0.2432,0,0,0,0,0,-0.2757,-0.274,-0.2732,-0.2723,-0.2668,-0.2634,-0.2627,-0.2603,-0.2602,-0.2592,-0.2569,-0.2556,-0.2491,-0.2498,-0.2489,-0.248,-0.2416,-0.2415,-0.2414,-0.2431,-0.2431,-0.2432,0,0,0,0,0,0,-0.2779,-0.2734,-0.2725,-0.2695,-0.2669,-0.2629,-0.2616,-0.2604,-0.2577,-0.2577,-0.2548,-0.254,-0.2512,-0.2493,-0.2501,-0.2455,-0.2452,-0.245,-0.2469,-0.2469,-0.2469,-0.2474,-0.2486,0,0,0,0,0,-0.2781,-0.2757,-0.2719,-0.2696,-0.2683,-0.2652,-0.2636,-0.262,-0.2592,-0.258,-0.2554,-0.2527,-0.25,-0.2483,-0.2457,-0.2429,-0.242,-0.2418,-0.2418,-0.2419,-0.2417,-0.2401,-0.2399,-0.2411,-0.2411,-0.2411,0,0,-0.2784,-0.2756,-0.2743,-0.27,-0.2677,-0.2653,-0.2643,-0.2617,-0.2599,-0.2576,-0.2546,-0.2526,-0.2494,-0.2464,-0.245,-0.2448,-0.2412,-0.2418,-0.2418,-0.2416,-0.24,-0.2399,-0.2398,-0.2411,-0.2411,-0.2411,0,0,-0.2776,-0.2753,-0.2731,-0.2709,-0.2675,-0.2655,-0.265,-0.2612,-0.2598,-0.2568,-0.255,-0.2528,-0.2483,-0.246,-0.2443,-0.2428,-0.2416,-0.242,-0.2421,-0.2406,-0.2405,-0.2404,-0.2398,-0.2397,-0.2418,-0.2418,-0.2418,0,-0.2784,-0.2746,-0.2722,-0.2697,-0.2679,-0.2658,-0.2636,-0.2615,-0.2575,-0.2563,-0.2561,-0.2503,-0.248,-0.2445,-0.2442,-0.2428,-0.2422,-0.2424,-0.2407,-0.2406,-0.2404,-0.2399,-0.2397,-0.2419,-0.2419,-0.2419,-0.2419,0,-0.2758,-0.2732,-0.2719,-0.268,-0.266,-0.2637,-0.2609,-0.2592,-0.2578,-0.2558,-0.2527,-0.2498,-0.2466,-0.2456,-0.2442,-0.2419,-0.2419,-0.2412,-0.2409,-0.2405,-0.2399,-0.2397,-0.242,-0.242,-0.2419,-0.2419,0,0,-0.2762,-0.271,-0.2706,-0.2688,-0.265,-0.2629,-0.2605,-0.2574,-0.256,-0.2533,-0.2512,-0.2474,-0.2468,-0.2448,-0.2432,-0.2418,-0.2408,-0.2413,-0.2412,-0.2413,-0.2381,-0.2386,-0.2384,-0.24,-0.2399,-0.2399,-0.2384,0,-0.2749,-0.2706,-0.2683,-0.2649,-0.2625,-0.2605,-0.2584,-0.2558,-0.2539,-0.2516,-0.2494,-0.2468,-0.2462,-0.245,-0.2436,-0.2412,-0.2401,-0.2413,-0.238,-0.2379,-0.2389,-0.2381,-0.2387,-0.2374,-0.2381,-0.2381,-0.2381,0,-0.2729,-0.2702,-0.2666,-0.263,-0.2619,-0.2601,-0.257,-0.2548,-0.2519,-0.2506,-0.2484,-0.2468,-0.2442,-0.2441,-0.2405,-0.2414,-0.2399,-0.2385,-0.2384,-0.238,-0.238,-0.2377,-0.2369,-0.2367,-0.2377,-0.2377,-0.2378,0,-0.2736,-0.2691,-0.2663,-0.2648,-0.2606,-0.2594,-0.2576,-0.2546,-0.2529,-0.2502,-0.249,-0.2461,-0.2445,-0.2422,-0.2398,-0.24,-0.2365,-0.2362,-0.2353,-0.2354,-0.2346,-0.2347,-0.2336,-0.2337,-0.2337,-0.2337,-0.2337,0,-0.2724,-0.2702,-0.2666,-0.2649,-0.2624,-0.2598,-0.2575,-0.2555,-0.2529,-0.2508,-0.2489,-0.2469,-0.2439,-0.2416,-0.2397,-0.237,-0.2363,-0.2352,-0.2347,-0.2353,-0.2355,-0.2343,-0.2343,-0.2337,-0.2337,-0.2337,-0.2337,0,-0.2727,-0.2702,-0.267,-0.2633,-0.2623,-0.2607,-0.2575,-0.2558,-0.2538,-0.2511,-0.2504,-0.2472,-0.2444,-0.2418,-0.238,-0.2368,-0.2341,-0.2335,-0.2351,-0.2348,-0.2341,-0.2342,-0.2322,-0.2318,-0.2322,-0.2322,-0.2322,0,-0.2722,-0.2705,-0.2665,-0.265,-0.2632,-0.2608,-0.259,-0.2564,-0.2546,-0.2511,-0.2498,-0.2469,-0.2443,-0.24,-0.2373,-0.2344,-0.2337,-0.2332,-0.2333,-0.234,-0.2337,-0.2339,-0.2337,-0.2333,-0.2333,-0.2333,-0.2333,0,-0.2714,-0.2702,-0.2677,-0.2647,-0.2627,-0.2602,-0.2577,-0.2565,-0.2535,-0.2516,-0.2487,-0.2467,-0.2429,-0.24,-0.2369,-0.235,-0.2336,-0.2333,-0.2329,-0.2336,-0.2346,-0.234,-0.2352,-0.2334,-0.2333,-0.2333,-0.2333,-0.2333,-0.2712,-0.2696,-0.2666,-0.2639,-0.2618,-0.2595,-0.2577,-0.2555,-0.253,-0.2497,-0.2483,-0.2454,-0.2425,-0.2381,-0.2362,-0.2339,-0.2336,-0.2331,-0.233,-0.2329,-0.233,-0.235,-0.2333,-0.2333,-0.2333,-0.2333,-0.2333,0,-0.2704,-0.2683,-0.2659,-0.2624,-0.2603,-0.2592,-0.2564,-0.2547,-0.2521,-0.2495,-0.2471,-0.2438,-0.241,-0.2381,-0.2352,-0.2338,-0.2331,-0.2331,-0.2332,-0.2328,-0.2334,-0.234,-0.2338,-0.2338,-0.2338,-0.2338,-0.2338,-0.2338,-0.2697,-0.2669,-0.2654,-0.2616,-0.2595,-0.2567,-0.2551,-0.253,-0.2509,-0.2473,-0.245,-0.2432,-0.2405,-0.2373,-0.2346,-0.2339,-0.2329,-0.233,-0.2321,-0.2328,-0.2328,-0.2327,-0.2333,-0.2329,-0.2329,-0.2317,-0.2317,-0.2316]},{"header":{"parameterUnit":"m.s-1","parameterCategory":1,"la1":30.2991,"la2":30.254,"lo1":-89.0895,"lo2":-89.0444,"dy":0.0017,"dx":0.0017,"nx":28,"ny":28,"refTime":"2024-07-06T21:00:00:Z","depth":0,"parameterNumber":3,"parameterNumberName":"V-component_of_WINDS"},"data":[0,0,0,0,0,0,0,0,0,0,0,0,0,0,0,0,0,0,0,0,0,0,0,0,0,0,0,0,0,0,0,0,0,0,0,0,0,0,0,0,0,0,0,0,0,0,0,0,0,0,0,0,0,0,0,0,0,0,3.0049,3.0049,0,3.0079,3.008,3.008,3.0054,3.0053,3.0052,3.0051,3.008,3.0082,3.0084,0,0,0,0,0,0,0,0,0,0,0,0,0,2.9965,2.9967,3.0049,3.0049,3.0049,3.0079,3.008,3.008,3.0055,3.0053,3.0052,3.0051,3.008,3.0082,3.0084,0,0,0,0,0,0,0,0,0,0,0,0,0,2.9999,2.9967,3.0049,3.004,3.004,3.0079,3.008,3.008,3.0055,3.0053,3.0052,3.005,3.0079,3.0082,3.0084,3.0133,0,0,3.0092,3.0094,0,0,0,0,0,0,0,0,2.9997,3.0002,3.0041,3.0041,3.0041,3.0061,3.0061,3.0098,3.0055,3.0049,3.0051,3.0049,3.0075,3.0078,3.0087,3.0134,3.0135,3.0093,3.0094,3.0095,3.0096,0,0,0,0,0,0,0,2.9995,3.0001,3.0061,3.0042,3.0041,3.0034,3.0037,3.0068,3.0071,3.0049,3.0048,3.0052,3.0075,3.0085,3.0088,3.0136,3.0093,3.0095,3.0097,3.0098,3.0224,3.0226,0,0,0,0,0,0,2.9994,2.9999,3.006,3.0062,3.0015,3.0037,3.004,3.0056,3.007,3.0071,3.0053,3.0051,3.0081,3.0085,3.0089,3.0147,3.0095,3.0098,3.0099,3.0222,3.0224,3.0226,0,0,0,0,0,0,2.9992,3.0,3.0058,3.003,3.0037,3.004,3.0058,3.0058,3.0068,3.0073,3.0073,3.0063,3.008,3.0085,3.0122,3.0148,3.0099,3.0101,3.022,3.0223,3.0225,3.0263,0,0,0,0,0,0,2.999,2.9999,3.0018,3.0031,3.0039,3.0092,3.006,3.006,3.0073,3.007,3.0082,3.0083,3.0079,3.0118,3.0125,3.015,3.0104,3.0218,3.0221,3.0224,3.026,3.0267,3.0273,0,0,0,0,0,2.9987,3.0027,3.0019,3.0027,3.0063,3.0094,3.0098,3.0094,3.0075,3.0094,3.0097,3.0083,3.0143,3.0122,3.0129,3.0156,3.0216,3.022,3.0224,3.0257,3.0266,3.0273,0,0,0,0,0,0,3.0017,3.0028,3.002,3.0065,3.0079,3.009,3.0113,3.0103,3.0121,3.0118,3.011,3.0113,3.0153,3.0158,3.0134,3.0204,3.0177,3.0182,3.0199,3.0208,3.0214,3.0212,3.0106,0,0,0,0,0,3.0029,3.0054,3.0062,3.0102,3.0109,3.011,3.0123,3.0119,3.0132,3.0137,3.0143,3.0156,3.0178,3.0193,3.0213,3.026,3.0263,3.0282,3.0288,3.0294,3.0299,3.0325,3.0334,3.0239,3.0239,3.0239,0,0,3.0053,3.0063,3.0079,3.0108,3.0118,3.0144,3.0115,3.0143,3.0162,3.0141,3.0178,3.0182,3.0196,3.0238,3.0257,3.0244,3.0326,3.0299,3.0303,3.0306,3.033,3.0339,3.0347,3.0242,3.0241,3.0241,0,0,3.0112,3.0121,3.0156,3.0166,3.0182,3.0182,3.0191,3.0203,3.0206,3.0242,3.0227,3.0248,3.0286,3.0297,3.0308,3.037,3.0358,3.0377,3.0412,3.0437,3.0444,3.0451,3.0474,3.0482,3.0382,3.0382,3.0382,0,3.014,3.018,3.0174,3.0204,3.0217,3.02,3.0234,3.0245,3.0266,3.0275,3.026,3.0307,3.0315,3.036,3.0376,3.0384,3.0393,3.0376,3.0444,3.045,3.0456,3.0478,3.0487,3.0384,3.0384,3.0384,3.0383,0,3.0214,3.0242,3.0267,3.029,3.0305,3.0337,3.0336,3.0352,3.0346,3.0347,3.0384,3.0393,3.0416,3.0426,3.0419,3.047,3.0461,3.0445,3.0418,3.0468,3.0488,3.0497,3.0387,3.0387,3.0386,3.0385,0,0,3.0293,3.0312,3.0322,3.0332,3.0348,3.0369,3.0399,3.0422,3.0437,3.0451,3.0477,3.0509,3.0495,3.0507,3.0501,3.0523,3.0573,3.0504,3.0504,3.0517,3.063,3.0643,3.0653,3.0564,3.0566,3.0567,3.0629,0,3.0354,3.0409,3.0404,3.0456,3.0481,3.0465,3.0492,3.0504,3.0506,3.0528,3.0529,3.0553,3.0531,3.0539,3.0559,3.0562,3.0595,3.0558,3.0588,3.0589,3.0587,3.0663,3.0677,3.0736,3.0637,3.0638,3.0639,0,3.0431,3.045,3.0505,3.0518,3.0528,3.0552,3.0573,3.0593,3.0607,3.0607,3.062,3.0611,3.0641,3.0613,3.0654,3.0629,3.0641,3.0644,3.0646,3.065,3.0618,3.067,3.0754,3.0764,3.0652,3.0651,3.065,0,3.0485,3.0524,3.0562,3.0571,3.0586,3.0604,3.0611,3.0622,3.0636,3.0654,3.0663,3.0683,3.0695,3.071,3.0707,3.0686,3.075,3.072,3.0751,3.0751,3.0766,3.0765,3.0854,3.0772,3.0771,3.0771,3.0771,0,3.0553,3.0588,3.0586,3.061,3.0647,3.0641,3.0679,3.0683,3.0694,3.0718,3.0704,3.0726,3.0719,3.0741,3.0738,3.0774,3.0778,3.0779,3.0778,3.0781,3.0782,3.079,3.0787,3.0774,3.0773,3.0773,3.0772,0,3.062,3.0621,3.0661,3.0672,3.0676,3.0703,3.0713,3.0734,3.0735,3.0765,3.0772,3.0774,3.0798,3.0796,3.0823,3.0821,3.0866,3.0859,3.0862,3.0861,3.0892,3.089,3.0991,3.1004,3.0911,3.0912,3.0913,0,3.0665,3.0691,3.0705,3.0721,3.0729,3.0754,3.0768,3.0763,3.0779,3.0796,3.0816,3.0839,3.0858,3.0899,3.0902,3.0923,3.0917,3.0951,3.0921,3.0923,3.0919,3.0919,3.0922,3.0958,3.0959,3.096,3.096,0,3.0744,3.0743,3.0765,3.0787,3.0805,3.0822,3.0837,3.085,3.0846,3.0864,3.089,3.0905,3.0934,3.0958,3.0978,3.0984,3.0972,3.097,3.0978,3.0982,3.0984,3.0985,3.088,3.0968,3.0967,3.0967,3.0966,3.0966,3.0802,3.0824,3.0839,3.0863,3.0875,3.0889,3.0911,3.0915,3.0937,3.096,3.0955,3.0985,3.0997,3.1023,3.1031,3.1053,3.1041,3.1053,3.1056,3.1059,3.1064,3.0979,3.1056,3.1056,3.1056,3.1056,3.1056,0,3.0881,3.0889,3.0912,3.0935,3.0955,3.0942,3.0958,3.0975,3.1002,3.1014,3.1034,3.1063,3.1086,3.1091,3.1113,3.113,3.1125,3.1136,3.1136,3.1137,3.1073,3.1064,3.114,3.114,3.114,3.114,3.114,3.114,3.0925,3.0963,3.0964,3.1007,3.1015,3.1044,3.1055,3.1068,3.1079,3.1113,3.1133,3.1136,3.1145,3.1168,3.1188,3.1189,3.1198,3.1212,3.1211,3.115,3.1142,3.1134,3.1126,3.1214,3.1214,3.1274,3.1274,3.1275]}]]